TimePST,TemperatureF,Dew PointF,Humidity,Sea Level PressureIn,VisibilityMPH,Wind Direction,Wind SpeedMPH,Gust SpeedMPH,PrecipitationIn,Events,Conditions,WindDirDegrees,DateUTC
12:56 AM,46.9,42.1,83,30.21,10.0,Calm,Calm,-,N/A,,Clear,0,2013-02-01 08:56:00
1:56 AM,45.0,41.0,86,30.21,9.0,Calm,Calm,-,N/A,,Clear,0,2013-02-01 09:56:00
2:56 AM,44.1,41.0,89,30.22,8.0,Calm,Calm,-,N/A,,Clear,0,2013-02-01 10:56:00
3:56 AM,43.0,39.9,89,30.21,8.0,Calm,Calm,-,N/A,,Clear,0,2013-02-01 11:56:00
4:56 AM,42.1,39.0,89,30.21,7.0,Calm,Calm,-,N/A,,Clear,0,2013-02-01 12:56:00
5:56 AM,42.1,39.9,92,30.21,9.0,Calm,Calm,-,N/A,,Clear,0,2013-02-01 13:56:00
6:56 AM,43.0,39.9,89,30.22,7.0,South,4.6,-,N/A,,Clear,180,2013-02-01 14:56:00
7:56 AM,44.1,39.9,85,30.22,5.0,Calm,Calm,-,N/A,,Clear,0,2013-02-01 15:56:00
8:56 AM,48.9,44.1,83,30.23,5.0,Calm,Calm,-,N/A,,Haze,0,2013-02-01 16:56:00
9:56 AM,54.0,45.0,72,30.23,7.0,Calm,Calm,-,N/A,,Clear,0,2013-02-01 17:56:00
10:56 AM,59.0,45.0,60,30.22,7.0,Variable,3.5,-,N/A,,Clear,0,2013-02-01 18:56:00
11:56 AM,61.0,45.0,56,30.19,8.0,Calm,Calm,-,N/A,,Clear,0,2013-02-01 19:56:00
12:56 PM,64.0,43.0,46,30.16,9.0,NNE,3.5,-,N/A,,Clear,30,2013-02-01 20:56:00
1:56 PM,66.0,42.1,42,30.14,10.0,Calm,Calm,-,N/A,,Clear,0,2013-02-01 21:56:00
2:56 PM,66.0,46.9,50,30.13,10.0,North,9.2,-,N/A,,Clear,360,2013-02-01 22:56:00
3:56 PM,62.1,46.0,56,30.14,10.0,NNW,4.6,-,N/A,,Clear,340,2013-02-01 23:56:00
4:56 PM,59.0,46.9,64,30.15,9.0,NNW,4.6,-,N/A,,Clear,330,2013-02-02 00:56:00
5:56 PM,59.0,44.1,58,30.17,10.0,West,3.5,-,N/A,,Clear,270,2013-02-02 01:56:00
6:56 PM,55.9,45.0,67,30.20,10.0,Calm,Calm,-,N/A,,Clear,0,2013-02-02 02:56:00
7:56 PM,55.9,45.0,67,30.20,10.0,Calm,Calm,-,N/A,,Clear,0,2013-02-02 03:56:00
8:56 PM,53.1,45.0,74,30.21,10.0,Calm,Calm,-,N/A,,Clear,0,2013-02-02 04:56:00
9:56 PM,53.1,45.0,74,30.22,10.0,Calm,Calm,-,N/A,,Clear,0,2013-02-02 05:56:00
10:56 PM,52.0,45.0,77,30.23,10.0,Calm,Calm,-,N/A,,Clear,0,2013-02-02 06:56:00
11:56 PM,48.9,43.0,80,30.24,10.0,Calm,Calm,-,N/A,,Clear,0,2013-02-02 07:56:00